owner,sensor,date,latitude,longitude,air_temperature,qcFlag 
DISL,ioos:station:DISL:DISL:1,2010-05-01T00:00:00Z,30.2513,-88.0778,22.38,1111122 
DISL,ioos:station:DISL:DISL:1,2010-05-01T00:30:00Z,30.2513,-88.0778,22.37,1111122 
DISL,ioos:station:DISL:DISL:1,2010-05-01T01:00:00Z,30.2513,-88.0778,22.32,1111122 
DISL,ioos:station:DISL:DISL:1,2010-05-01T01:30:00Z,30.2513,-88.0778,22.21,1111122 
DISL,ioos:station:DISL:DISL:1,2010-05-01T02:00:00Z,30.2513,-88.0778,22.17,1111122 
DISL,ioos:station:DISL:DISL:1,2010-05-01T02:30:00Z,30.2513,-88.0778,22.03,1111122 
DISL,ioos:station:DISL:DISL:1,2010-05-01T03:00:00Z,30.2513,-88.0778,22.02,1111122 
DISL,ioos:station:DISL:DISL:1,2010-05-01T03:30:00Z,30.2513,-88.0778,22.52,1111122 
DISL,ioos:station:DISL:DISL:1,2010-05-01T04:00:00Z,30.2513,-88.0778,22.41,1111122 
DISL,ioos:station:DISL:DISL:1,2010-05-01T04:30:00Z,30.2513,-88.0778,22.49,1111122 
DISL,ioos:station:DISL:DISL:1,2010-05-01T05:00:00Z,30.2513,-88.0778,22.51,1111122 
DISL,ioos:station:DISL:DISL:1,2010-05-01T05:30:00Z,30.2513,-88.0778,22.34,1111122 
DISL,ioos:station:DISL:DISL:1,2010-05-01T06:00:00Z,30.2513,-88.0778,22.27,1111122 
DISL,ioos:station:DISL:DISL:1,2010-05-01T06:30:00Z,30.2513,-88.0778,22.21,1111122 
DISL,ioos:station:DISL:DISL:1,2010-05-01T07:00:00Z,30.2513,-88.0778,22.19,1111122 
DISL,ioos:station:DISL:DISL:1,2010-05-01T07:30:00Z,30.2513,-88.0778,22.25,1111122 
DISL,ioos:station:DISL:DISL:1,2010-05-01T08:00:00Z,30.2513,-88.0778,22.27,1111122 
DISL,ioos:station:DISL:DISL:1,2010-05-01T08:30:00Z,30.2513,-88.0778,22.22,1111122 
DISL,ioos:station:DISL:DISL:1,2010-05-01T09:00:00Z,30.2513,-88.0778,22.29,1111122 
DISL,ioos:station:DISL:DISL:1,2010-05-01T09:30:00Z,30.2513,-88.0778,22.28,1111122 
DISL,ioos:station:DISL:DISL:1,2010-05-01T10:00:00Z,30.2513,-88.0778,22.31,1111122 
DISL,ioos:station:DISL:DISL:1,2010-05-01T10:30:00Z,30.2513,-88.0778,22.43,1111122 
DISL,ioos:station:DISL:DISL:1,2010-05-01T11:00:00Z,30.2513,-88.0778,22.38,1111122 
DISL,ioos:station:DISL:DISL:1,2010-05-01T11:30:00Z,30.2513,-88.0778,22.31,1111122 
DISL,ioos:station:DISL:DISL:1,2010-05-01T12:00:00Z,30.2513,-88.0778,22.44,1111122 
DISL,ioos:station:DISL:DISL:1,2010-05-01T12:30:00Z,30.2513,-88.0778,22.44,1111122 
DISL,ioos:station:DISL:DISL:1,2010-05-01T13:00:00Z,30.2513,-88.0778,22.5,1111122 
DISL,ioos:station:DISL:DISL:1,2010-05-01T13:30:00Z,30.2513,-88.0778,22.53,1111122 
DISL,ioos:station:DISL:DISL:1,2010-05-01T14:00:00Z,30.2513,-88.0778,22.64,1111122 
DISL,ioos:station:DISL:DISL:1,2010-05-01T14:30:00Z,30.2513,-88.0778,22.98,1111122 
DISL,ioos:station:DISL:DISL:1,2010-05-01T15:00:00Z,30.2513,-88.0778,22.93,1111122 
DISL,ioos:station:DISL:DISL:1,2010-05-01T15:30:00Z,30.2513,-88.0778,23.35,1111122 
DISL,ioos:station:DISL:DISL:1,2010-05-01T16:00:00Z,30.2513,-88.0778,23.9,1111122 
DISL,ioos:station:DISL:DISL:1,2010-05-01T16:30:00Z,30.2513,-88.0778,23.67,1111122 
DISL,ioos:station:DISL:DISL:1,2010-05-01T17:00:00Z,30.2513,-88.0778,23.91,1111122 
DISL,ioos:station:DISL:DISL:1,2010-05-01T17:30:00Z,30.2513,-88.0778,23.8,1111122 
DISL,ioos:station:DISL:DISL:1,2010-05-01T18:00:00Z,30.2513,-88.0778,24.03,1111122 
DISL,ioos:station:DISL:DISL:1,2010-05-01T18:30:00Z,30.2513,-88.0778,23.98,1111122 
DISL,ioos:station:DISL:DISL:1,2010-05-01T19:00:00Z,30.2513,-88.0778,23.94,1111122 
DISL,ioos:station:DISL:DISL:1,2010-05-01T19:30:00Z,30.2513,-88.0778,23.96,1111122 
DISL,ioos:station:DISL:DISL:1,2010-05-01T20:00:00Z,30.2513,-88.0778,23.95,1111122 
DISL,ioos:station:DISL:DISL:1,2010-05-01T20:30:00Z,30.2513,-88.0778,23.92,1111122 
DISL,ioos:station:DISL:DISL:1,2010-05-01T21:00:00Z,30.2513,-88.0778,23.86,1111122 
DISL,ioos:station:DISL:DISL:1,2010-05-01T21:30:00Z,30.2513,-88.0778,23.77,1111122 
DISL,ioos:station:DISL:DISL:1,2010-05-01T22:00:00Z,30.2513,-88.0778,23.65,1111122 
DISL,ioos:station:DISL:DISL:1,2010-05-01T22:30:00Z,30.2513,-88.0778,23.83,1111122 
DISL,ioos:station:DISL:DISL:1,2010-05-01T23:00:00Z,30.2513,-88.0778,23.64,1111122 
DISL,ioos:station:DISL:DISL:1,2010-05-01T23:30:00Z,30.2513,-88.0778,23.49,1111122 
DISL,ioos:station:DISL:DISL:1,2010-05-02T00:00:00Z,30.2513,-88.0778,23.48,1111122 
DISL,ioos:station:DISL:DISL:1,2010-05-02T00:30:00Z,30.2513,-88.0778,23.54,1111122 
DISL,ioos:station:DISL:DISL:1,2010-05-02T01:00:00Z,30.2513,-88.0778,23.38,1111122 
DISL,ioos:station:DISL:DISL:1,2010-05-02T01:30:00Z,30.2513,-88.0778,23.37,1111122 
DISL,ioos:station:DISL:DISL:1,2010-05-02T02:00:00Z,30.2513,-88.0778,23.37,1111122 
DISL,ioos:station:DISL:DISL:1,2010-05-02T02:30:00Z,30.2513,-88.0778,23.24,1111122 
DISL,ioos:station:DISL:DISL:1,2010-05-02T03:00:00Z,30.2513,-88.0778,23.23,1111122 
DISL,ioos:station:DISL:DISL:1,2010-05-02T03:30:00Z,30.2513,-88.0778,23.17,1111122 
DISL,ioos:station:DISL:DISL:1,2010-05-02T04:00:00Z,30.2513,-88.0778,23.08,1111122 
DISL,ioos:station:DISL:DISL:1,2010-05-02T04:30:00Z,30.2513,-88.0778,23.14,1111122 
DISL,ioos:station:DISL:DISL:1,2010-05-02T05:00:00Z,30.2513,-88.0778,23.18,1111122 
DISL,ioos:station:DISL:DISL:1,2010-05-02T05:30:00Z,30.2513,-88.0778,23.32,1111122 
DISL,ioos:station:DISL:DISL:1,2010-05-02T06:00:00Z,30.2513,-88.0778,23.36,1111122 
DISL,ioos:station:DISL:DISL:1,2010-05-02T06:30:00Z,30.2513,-88.0778,23.41,1111122 
DISL,ioos:station:DISL:DISL:1,2010-05-02T07:00:00Z,30.2513,-88.0778,23.15,1111122 
DISL,ioos:station:DISL:DISL:1,2010-05-02T07:30:00Z,30.2513,-88.0778,23.05,1111122 
DISL,ioos:station:DISL:DISL:1,2010-05-02T08:00:00Z,30.2513,-88.0778,22.97,1111122 
DISL,ioos:station:DISL:DISL:1,2010-05-02T08:30:00Z,30.2513,-88.0778,23.07,1111122 
DISL,ioos:station:DISL:DISL:1,2010-05-02T09:00:00Z,30.2513,-88.0778,23.14,1111122 
DISL,ioos:station:DISL:DISL:1,2010-05-02T09:30:00Z,30.2513,-88.0778,23.19,1111122 
DISL,ioos:station:DISL:DISL:1,2010-05-02T10:00:00Z,30.2513,-88.0778,23.15,1111122 
DISL,ioos:station:DISL:DISL:1,2010-05-02T10:30:00Z,30.2513,-88.0778,23.03,1111122 
DISL,ioos:station:DISL:DISL:1,2010-05-02T11:00:00Z,30.2513,-88.0778,23.16,1111122 
DISL,ioos:station:DISL:DISL:1,2010-05-02T11:30:00Z,30.2513,-88.0778,23.19,1111122 
DISL,ioos:station:DISL:DISL:1,2010-05-02T12:00:00Z,30.2513,-88.0778,23.37,1111122 
DISL,ioos:station:DISL:DISL:1,2010-05-02T12:30:00Z,30.2513,-88.0778,23.79,1111122 
DISL,ioos:station:DISL:DISL:1,2010-05-02T13:00:00Z,30.2513,-88.0778,24.05,1111122 
DISL,ioos:station:DISL:DISL:1,2010-05-02T13:30:00Z,30.2513,-88.0778,24.21,1111122 
DISL,ioos:station:DISL:DISL:1,2010-05-02T14:00:00Z,30.2513,-88.0778,24.46,1111122 
DISL,ioos:station:DISL:DISL:1,2010-05-02T14:30:00Z,30.2513,-88.0778,24.68,1111122 
DISL,ioos:station:DISL:DISL:1,2010-05-02T15:00:00Z,30.2513,-88.0778,25.26,1111122 
DISL,ioos:station:DISL:DISL:1,2010-05-02T15:30:00Z,30.2513,-88.0778,25.26,1111122 
DISL,ioos:station:DISL:DISL:1,2010-05-02T16:00:00Z,30.2513,-88.0778,25.49,1111122 
DISL,ioos:station:DISL:DISL:1,2010-05-02T16:30:00Z,30.2513,-88.0778,25.87,1111122 
DISL,ioos:station:DISL:DISL:1,2010-05-02T17:00:00Z,30.2513,-88.0778,25.18,1111122 
DISL,ioos:station:DISL:DISL:1,2010-05-02T17:30:00Z,30.2513,-88.0778,25.31,1111122 
DISL,ioos:station:DISL:DISL:1,2010-05-02T18:00:00Z,30.2513,-88.0778,25.77,1111122 
DISL,ioos:station:DISL:DISL:1,2010-05-02T18:30:00Z,30.2513,-88.0778,25.27,1111122 
DISL,ioos:station:DISL:DISL:1,2010-05-02T19:00:00Z,30.2513,-88.0778,24.88,1111122 
DISL,ioos:station:DISL:DISL:1,2010-05-02T19:30:00Z,30.2513,-88.0778,25.22,1111122 
DISL,ioos:station:DISL:DISL:1,2010-05-02T20:00:00Z,30.2513,-88.0778,25.2,1111122 
DISL,ioos:station:DISL:DISL:1,2010-05-02T20:30:00Z,30.2513,-88.0778,24.77,1111122 
DISL,ioos:station:DISL:DISL:1,2010-05-02T21:00:00Z,30.2513,-88.0778,24.5,1111122 
DISL,ioos:station:DISL:DISL:1,2010-05-02T21:30:00Z,30.2513,-88.0778,24.39,1111122 
DISL,ioos:station:DISL:DISL:1,2010-05-02T22:00:00Z,30.2513,-88.0778,24.29,1111122 
DISL,ioos:station:DISL:DISL:1,2010-05-02T22:30:00Z,30.2513,-88.0778,24.25,1111122 
DISL,ioos:station:DISL:DISL:1,2010-05-02T23:00:00Z,30.2513,-88.0778,24.28,1111122 
DISL,ioos:station:DISL:DISL:1,2010-05-02T23:30:00Z,30.2513,-88.0778,24.35,1111122 
DISL,ioos:station:DISL:DISL:1,2010-05-03T00:00:00Z,30.2513,-88.0778,24.33,1111122 
DISL,ioos:station:DISL:DISL:1,2010-05-03T00:30:00Z,30.2513,-88.0778,24.22,1111122 
DISL,ioos:station:DISL:DISL:1,2010-05-03T01:00:00Z,30.2513,-88.0778,24.17,1111122 
DISL,ioos:station:DISL:DISL:1,2010-05-03T01:30:00Z,30.2513,-88.0778,24.15,1111122 
DISL,ioos:station:DISL:DISL:1,2010-05-03T02:00:00Z,30.2513,-88.0778,24.17,1111122 
DISL,ioos:station:DISL:DISL:1,2010-05-03T02:30:00Z,30.2513,-88.0778,24.16,1111122 
DISL,ioos:station:DISL:DISL:1,2010-05-03T03:00:00Z,30.2513,-88.0778,24.16,1111122 
DISL,ioos:station:DISL:DISL:1,2010-05-03T03:30:00Z,30.2513,-88.0778,24.22,1111122 
DISL,ioos:station:DISL:DISL:1,2010-05-03T04:00:00Z,30.2513,-88.0778,24.22,1111122 
DISL,ioos:station:DISL:DISL:1,2010-05-03T04:30:00Z,30.2513,-88.0778,24.25,1111122 
DISL,ioos:station:DISL:DISL:1,2010-05-03T05:00:00Z,30.2513,-88.0778,24.24,1111122 
DISL,ioos:station:DISL:DISL:1,2010-05-03T05:30:00Z,30.2513,-88.0778,24.25,1111122 
DISL,ioos:station:DISL:DISL:1,2010-05-03T06:00:00Z,30.2513,-88.0778,24.17,1111122 
DISL,ioos:station:DISL:DISL:1,2010-05-03T06:30:00Z,30.2513,-88.0778,24.15,1111122 
DISL,ioos:station:DISL:DISL:1,2010-05-03T07:00:00Z,30.2513,-88.0778,24.2,1111122 
DISL,ioos:station:DISL:DISL:1,2010-05-03T07:30:00Z,30.2513,-88.0778,24.26,1111122 
DISL,ioos:station:DISL:DISL:1,2010-05-03T08:00:00Z,30.2513,-88.0778,24.31,1111122 
DISL,ioos:station:DISL:DISL:1,2010-05-03T08:30:00Z,30.2513,-88.0778,24.24,1111122 
DISL,ioos:station:DISL:DISL:1,2010-05-03T09:00:00Z,30.2513,-88.0778,24.21,1111122 
DISL,ioos:station:DISL:DISL:1,2010-05-03T09:30:00Z,30.2513,-88.0778,24.16,1111122 
DISL,ioos:station:DISL:DISL:1,2010-05-03T10:00:00Z,30.2513,-88.0778,24.07,1111122 
DISL,ioos:station:DISL:DISL:1,2010-05-03T10:30:00Z,30.2513,-88.0778,23.97,1111122 
DISL,ioos:station:DISL:DISL:1,2010-05-03T11:00:00Z,30.2513,-88.0778,24.06,1111122 
DISL,ioos:station:DISL:DISL:1,2010-05-03T11:30:00Z,30.2513,-88.0778,23.98,1111122 
DISL,ioos:station:DISL:DISL:1,2010-05-03T12:00:00Z,30.2513,-88.0778,24.09,1111122 
DISL,ioos:station:DISL:DISL:1,2010-05-03T12:30:00Z,30.2513,-88.0778,24.04,1111122 
DISL,ioos:station:DISL:DISL:1,2010-05-03T13:00:00Z,30.2513,-88.0778,23.85,1111122 
DISL,ioos:station:DISL:DISL:1,2010-05-03T13:30:00Z,30.2513,-88.0778,24.02,1111122 
DISL,ioos:station:DISL:DISL:1,2010-05-03T14:00:00Z,30.2513,-88.0778,23.89,1111122 
DISL,ioos:station:DISL:DISL:1,2010-05-03T14:30:00Z,30.2513,-88.0778,23.03,1111122 
DISL,ioos:station:DISL:DISL:1,2010-05-03T15:00:00Z,30.2513,-88.0778,22.08,1111122 
DISL,ioos:station:DISL:DISL:1,2010-05-03T15:30:00Z,30.2513,-88.0778,22.06,1111122 
DISL,ioos:station:DISL:DISL:1,2010-05-03T16:00:00Z,30.2513,-88.0778,21.88,1111122 
DISL,ioos:station:DISL:DISL:1,2010-05-03T16:30:00Z,30.2513,-88.0778,22.22,1111122 
DISL,ioos:station:DISL:DISL:1,2010-05-03T17:00:00Z,30.2513,-88.0778,22.38,1111122 
DISL,ioos:station:DISL:DISL:1,2010-05-03T17:30:00Z,30.2513,-88.0778,22.57,1111122 
DISL,ioos:station:DISL:DISL:1,2010-05-03T18:00:00Z,30.2513,-88.0778,22.8,1111122 
DISL,ioos:station:DISL:DISL:1,2010-05-03T18:30:00Z,30.2513,-88.0778,23.18,1111122 
DISL,ioos:station:DISL:DISL:1,2010-05-03T19:00:00Z,30.2513,-88.0778,23.25,1111122 
DISL,ioos:station:DISL:DISL:1,2010-05-03T19:30:00Z,30.2513,-88.0778,23.59,1111122 
DISL,ioos:station:DISL:DISL:1,2010-05-03T20:00:00Z,30.2513,-88.0778,23.62,1111122 
DISL,ioos:station:DISL:DISL:1,2010-05-03T20:30:00Z,30.2513,-88.0778,23.59,1111122 
DISL,ioos:station:DISL:DISL:1,2010-05-03T21:00:00Z,30.2513,-88.0778,23.77,1111122 
DISL,ioos:station:DISL:DISL:1,2010-05-03T21:30:00Z,30.2513,-88.0778,23.66,1111122 
DISL,ioos:station:DISL:DISL:1,2010-05-03T22:00:00Z,30.2513,-88.0778,23.38,1111122 
DISL,ioos:station:DISL:DISL:1,2010-05-03T22:30:00Z,30.2513,-88.0778,23.53,1111122 
DISL,ioos:station:DISL:DISL:1,2010-05-03T23:00:00Z,30.2513,-88.0778,23.47,1111122 
DISL,ioos:station:DISL:DISL:1,2010-05-03T23:30:00Z,30.2513,-88.0778,23.27,1111122 
DISL,ioos:station:DISL:DISL:1,2010-05-04T00:00:00Z,30.2513,-88.0778,23.04,1111122 
DISL,ioos:station:DISL:DISL:1,2010-05-04T00:30:00Z,30.2513,-88.0778,23.02,1111122 
DISL,ioos:station:DISL:DISL:1,2010-05-04T01:00:00Z,30.2513,-88.0778,22.84,1111122 
DISL,ioos:station:DISL:DISL:1,2010-05-04T01:30:00Z,30.2513,-88.0778,22.92,1111122 
DISL,ioos:station:DISL:DISL:1,2010-05-04T02:00:00Z,30.2513,-88.0778,22.87,1111122 
DISL,ioos:station:DISL:DISL:1,2010-05-04T02:30:00Z,30.2513,-88.0778,22.9,1111122 
DISL,ioos:station:DISL:DISL:1,2010-05-04T03:00:00Z,30.2513,-88.0778,22.79,1111122 
DISL,ioos:station:DISL:DISL:1,2010-05-04T03:30:00Z,30.2513,-88.0778,23.01,1111122 
DISL,ioos:station:DISL:DISL:1,2010-05-04T04:00:00Z,30.2513,-88.0778,23.0,1111122 
DISL,ioos:station:DISL:DISL:1,2010-05-04T04:30:00Z,30.2513,-88.0778,22.75,1111122 
DISL,ioos:station:DISL:DISL:1,2010-05-04T05:00:00Z,30.2513,-88.0778,22.73,1111122 
DISL,ioos:station:DISL:DISL:1,2010-05-04T05:30:00Z,30.2513,-88.0778,22.68,1111122 
DISL,ioos:station:DISL:DISL:1,2010-05-04T06:00:00Z,30.2513,-88.0778,22.41,1111122 
DISL,ioos:station:DISL:DISL:1,2010-05-04T06:30:00Z,30.2513,-88.0778,22.44,1111122 
DISL,ioos:station:DISL:DISL:1,2010-05-04T07:00:00Z,30.2513,-88.0778,21.9,1111122 
DISL,ioos:station:DISL:DISL:1,2010-05-04T07:30:00Z,30.2513,-88.0778,22.43,1111122 
DISL,ioos:station:DISL:DISL:1,2010-05-04T08:00:00Z,30.2513,-88.0778,22.35,1111122 
DISL,ioos:station:DISL:DISL:1,2010-05-04T08:30:00Z,30.2513,-88.0778,22.2,1111122 
DISL,ioos:station:DISL:DISL:1,2010-05-04T09:00:00Z,30.2513,-88.0778,22.34,1111122 
DISL,ioos:station:DISL:DISL:1,2010-05-04T09:30:00Z,30.2513,-88.0778,22.52,1111122 
DISL,ioos:station:DISL:DISL:1,2010-05-04T10:00:00Z,30.2513,-88.0778,22.81,1111122 
DISL,ioos:station:DISL:DISL:1,2010-05-04T10:30:00Z,30.2513,-88.0778,22.65,1111122 
DISL,ioos:station:DISL:DISL:1,2010-05-04T11:00:00Z,30.2513,-88.0778,22.56,1111122 
DISL,ioos:station:DISL:DISL:1,2010-05-04T11:30:00Z,30.2513,-88.0778,22.65,1111122 
DISL,ioos:station:DISL:DISL:1,2010-05-04T12:00:00Z,30.2513,-88.0778,22.58,1111122 
DISL,ioos:station:DISL:DISL:1,2010-05-04T12:30:00Z,30.2513,-88.0778,22.64,1111122 
DISL,ioos:station:DISL:DISL:1,2010-05-04T13:00:00Z,30.2513,-88.0778,22.61,1111122 
DISL,ioos:station:DISL:DISL:1,2010-05-04T13:30:00Z,30.2513,-88.0778,22.51,1111122 
DISL,ioos:station:DISL:DISL:1,2010-05-04T14:00:00Z,30.2513,-88.0778,22.8,1111122 
DISL,ioos:station:DISL:DISL:1,2010-05-04T14:30:00Z,30.2513,-88.0778,22.92,1111122 
DISL,ioos:station:DISL:DISL:1,2010-05-04T15:00:00Z,30.2513,-88.0778,23.02,1111122 
DISL,ioos:station:DISL:DISL:1,2010-05-04T15:30:00Z,30.2513,-88.0778,23.43,1111122 
DISL,ioos:station:DISL:DISL:1,2010-05-04T16:00:00Z,30.2513,-88.0778,23.83,1111122 
DISL,ioos:station:DISL:DISL:1,2010-05-04T16:30:00Z,30.2513,-88.0778,23.95,1111122 
DISL,ioos:station:DISL:DISL:1,2010-05-04T17:00:00Z,30.2513,-88.0778,24.01,1111122 
DISL,ioos:station:DISL:DISL:1,2010-05-04T17:30:00Z,30.2513,-88.0778,24.44,1111122 
DISL,ioos:station:DISL:DISL:1,2010-05-04T18:00:00Z,30.2513,-88.0778,24.79,1111122 
DISL,ioos:station:DISL:DISL:1,2010-05-04T18:30:00Z,30.2513,-88.0778,24.99,1111122 
DISL,ioos:station:DISL:DISL:1,2010-05-04T19:00:00Z,30.2513,-88.0778,25.41,1111122 
DISL,ioos:station:DISL:DISL:1,2010-05-04T19:30:00Z,30.2513,-88.0778,25.94,1111122 
DISL,ioos:station:DISL:DISL:1,2010-05-04T20:00:00Z,30.2513,-88.0778,26.34,1111122 
DISL,ioos:station:DISL:DISL:1,2010-05-04T20:30:00Z,30.2513,-88.0778,26.54,1111122 
DISL,ioos:station:DISL:DISL:1,2010-05-04T21:00:00Z,30.2513,-88.0778,26.85,1111122 
DISL,ioos:station:DISL:DISL:1,2010-05-04T21:30:00Z,30.2513,-88.0778,26.16,1111122 
DISL,ioos:station:DISL:DISL:1,2010-05-04T22:00:00Z,30.2513,-88.0778,25.83,1111122 
DISL,ioos:station:DISL:DISL:1,2010-05-04T22:30:00Z,30.2513,-88.0778,26.21,1111122 
DISL,ioos:station:DISL:DISL:1,2010-05-04T23:00:00Z,30.2513,-88.0778,26.07,1111122 
DISL,ioos:station:DISL:DISL:1,2010-05-04T23:30:00Z,30.2513,-88.0778,25.9,1111122 
DISL,ioos:station:DISL:DISL:1,2010-05-05T00:00:00Z,30.2513,-88.0778,25.47,1111122 
DISL,ioos:station:DISL:DISL:1,2010-05-05T00:30:00Z,30.2513,-88.0778,25.01,1111122 
DISL,ioos:station:DISL:DISL:1,2010-05-05T01:00:00Z,30.2513,-88.0778,24.78,1111122 
DISL,ioos:station:DISL:DISL:1,2010-05-05T01:30:00Z,30.2513,-88.0778,24.51,1111122 
DISL,ioos:station:DISL:DISL:1,2010-05-05T02:00:00Z,30.2513,-88.0778,24.46,1111122 
DISL,ioos:station:DISL:DISL:1,2010-05-05T02:30:00Z,30.2513,-88.0778,24.34,1111122 
DISL,ioos:station:DISL:DISL:1,2010-05-05T03:00:00Z,30.2513,-88.0778,24.14,1111122 
DISL,ioos:station:DISL:DISL:1,2010-05-05T03:30:00Z,30.2513,-88.0778,23.98,1111122 
DISL,ioos:station:DISL:DISL:1,2010-05-05T04:00:00Z,30.2513,-88.0778,23.7,1111122 
DISL,ioos:station:DISL:DISL:1,2010-05-05T04:30:00Z,30.2513,-88.0778,23.6,1111122 
DISL,ioos:station:DISL:DISL:1,2010-05-05T05:00:00Z,30.2513,-88.0778,23.63,1111122 
DISL,ioos:station:DISL:DISL:1,2010-05-05T05:30:00Z,30.2513,-88.0778,23.56,1111122 
DISL,ioos:station:DISL:DISL:1,2010-05-05T06:00:00Z,30.2513,-88.0778,23.42,1111122 
DISL,ioos:station:DISL:DISL:1,2010-05-05T06:30:00Z,30.2513,-88.0778,23.19,1111122 
DISL,ioos:station:DISL:DISL:1,2010-05-05T07:00:00Z,30.2513,-88.0778,22.92,1111122 
DISL,ioos:station:DISL:DISL:1,2010-05-05T07:30:00Z,30.2513,-88.0778,22.84,1111122 
DISL,ioos:station:DISL:DISL:1,2010-05-05T08:00:00Z,30.2513,-88.0778,22.46,1111122 
DISL,ioos:station:DISL:DISL:1,2010-05-05T08:30:00Z,30.2513,-88.0778,22.16,1111122 
DISL,ioos:station:DISL:DISL:1,2010-05-05T09:00:00Z,30.2513,-88.0778,22.22,1111122 
DISL,ioos:station:DISL:DISL:1,2010-05-05T09:30:00Z,30.2513,-88.0778,22.41,1111122 
DISL,ioos:station:DISL:DISL:1,2010-05-05T10:00:00Z,30.2513,-88.0778,22.33,1111122 
DISL,ioos:station:DISL:DISL:1,2010-05-05T10:30:00Z,30.2513,-88.0778,22.35,1111122 
DISL,ioos:station:DISL:DISL:1,2010-05-05T11:00:00Z,30.2513,-88.0778,22.63,1111122 
DISL,ioos:station:DISL:DISL:1,2010-05-05T11:30:00Z,30.2513,-88.0778,23.43,1111122 
DISL,ioos:station:DISL:DISL:1,2010-05-05T12:00:00Z,30.2513,-88.0778,26.3,1111122 
DISL,ioos:station:DISL:DISL:1,2010-05-05T12:30:00Z,30.2513,-88.0778,25.61,1111122 
DISL,ioos:station:DISL:DISL:1,2010-05-05T13:00:00Z,30.2513,-88.0778,24.37,1111122 
DISL,ioos:station:DISL:DISL:1,2010-05-05T13:30:00Z,30.2513,-88.0778,23.85,1111122 
DISL,ioos:station:DISL:DISL:1,2010-05-05T14:00:00Z,30.2513,-88.0778,23.86,1111122 
DISL,ioos:station:DISL:DISL:1,2010-05-05T14:30:00Z,30.2513,-88.0778,24.41,1111122 
DISL,ioos:station:DISL:DISL:1,2010-05-05T15:00:00Z,30.2513,-88.0778,24.41,1111122 
DISL,ioos:station:DISL:DISL:1,2010-05-05T15:30:00Z,30.2513,-88.0778,24.68,1111122 
DISL,ioos:station:DISL:DISL:1,2010-05-05T16:00:00Z,30.2513,-88.0778,25.05,1111122 
DISL,ioos:station:DISL:DISL:1,2010-05-05T16:30:00Z,30.2513,-88.0778,25.24,1111122 
DISL,ioos:station:DISL:DISL:1,2010-05-05T17:00:00Z,30.2513,-88.0778,25.86,1111122 
DISL,ioos:station:DISL:DISL:1,2010-05-05T17:30:00Z,30.2513,-88.0778,25.32,1111122 
DISL,ioos:station:DISL:DISL:1,2010-05-05T18:00:00Z,30.2513,-88.0778,26.46,1111122 
DISL,ioos:station:DISL:DISL:1,2010-05-05T18:30:00Z,30.2513,-88.0778,26.12,1111122 
DISL,ioos:station:DISL:DISL:1,2010-05-05T19:00:00Z,30.2513,-88.0778,26.11,1111122 
DISL,ioos:station:DISL:DISL:1,2010-05-05T19:30:00Z,30.2513,-88.0778,25.99,1111122 
DISL,ioos:station:DISL:DISL:1,2010-05-05T20:00:00Z,30.2513,-88.0778,26.01,1111122 
DISL,ioos:station:DISL:DISL:1,2010-05-05T20:30:00Z,30.2513,-88.0778,26.08,1111122 
DISL,ioos:station:DISL:DISL:1,2010-05-05T21:00:00Z,30.2513,-88.0778,26.11,1111122 
DISL,ioos:station:DISL:DISL:1,2010-05-05T21:30:00Z,30.2513,-88.0778,26.58,1111122 
DISL,ioos:station:DISL:DISL:1,2010-05-05T22:00:00Z,30.2513,-88.0778,26.03,1111122 
DISL,ioos:station:DISL:DISL:1,2010-05-05T22:30:00Z,30.2513,-88.0778,25.76,1111122 
DISL,ioos:station:DISL:DISL:1,2010-05-05T23:00:00Z,30.2513,-88.0778,25.65,1111122 
DISL,ioos:station:DISL:DISL:1,2010-05-05T23:30:00Z,30.2513,-88.0778,25.26,1111122 
DISL,ioos:station:DISL:DISL:1,2010-05-06T00:00:00Z,30.2513,-88.0778,24.99,1111122 
DISL,ioos:station:DISL:DISL:1,2010-05-06T00:30:00Z,30.2513,-88.0778,24.81,1111122 
DISL,ioos:station:DISL:DISL:1,2010-05-06T01:00:00Z,30.2513,-88.0778,24.84,1111122 
DISL,ioos:station:DISL:DISL:1,2010-05-06T01:30:00Z,30.2513,-88.0778,24.55,1111122 
DISL,ioos:station:DISL:DISL:1,2010-05-06T02:00:00Z,30.2513,-88.0778,24.57,1111122 
DISL,ioos:station:DISL:DISL:1,2010-05-06T02:30:00Z,30.2513,-88.0778,24.58,1111122 
DISL,ioos:station:DISL:DISL:1,2010-05-06T03:00:00Z,30.2513,-88.0778,24.7,1111122 
DISL,ioos:station:DISL:DISL:1,2010-05-06T03:30:00Z,30.2513,-88.0778,24.44,1111122 
DISL,ioos:station:DISL:DISL:1,2010-05-06T04:00:00Z,30.2513,-88.0778,24.24,1111122 
DISL,ioos:station:DISL:DISL:1,2010-05-06T04:30:00Z,30.2513,-88.0778,24.14,1111122 
DISL,ioos:station:DISL:DISL:1,2010-05-06T05:00:00Z,30.2513,-88.0778,24.27,1111122 
DISL,ioos:station:DISL:DISL:1,2010-05-06T05:30:00Z,30.2513,-88.0778,24.33,1111122 
DISL,ioos:station:DISL:DISL:1,2010-05-06T06:00:00Z,30.2513,-88.0778,24.18,1111122 
DISL,ioos:station:DISL:DISL:1,2010-05-06T06:30:00Z,30.2513,-88.0778,24.26,1111122 
DISL,ioos:station:DISL:DISL:1,2010-05-06T07:00:00Z,30.2513,-88.0778,23.96,1111122 
DISL,ioos:station:DISL:DISL:1,2010-05-06T07:30:00Z,30.2513,-88.0778,23.96,1111122 
DISL,ioos:station:DISL:DISL:1,2010-05-06T08:00:00Z,30.2513,-88.0778,23.79,1111122 
DISL,ioos:station:DISL:DISL:1,2010-05-06T08:30:00Z,30.2513,-88.0778,23.45,1111122 
DISL,ioos:station:DISL:DISL:1,2010-05-06T09:00:00Z,30.2513,-88.0778,23.09,1111122 
DISL,ioos:station:DISL:DISL:1,2010-05-06T09:30:00Z,30.2513,-88.0778,23.14,1111122 
DISL,ioos:station:DISL:DISL:1,2010-05-06T10:00:00Z,30.2513,-88.0778,23.25,1111122 
DISL,ioos:station:DISL:DISL:1,2010-05-06T10:30:00Z,30.2513,-88.0778,23.23,1111122 
DISL,ioos:station:DISL:DISL:1,2010-05-06T11:00:00Z,30.2513,-88.0778,23.16,1111122 
DISL,ioos:station:DISL:DISL:1,2010-05-06T11:30:00Z,30.2513,-88.0778,23.55,1111122 
DISL,ioos:station:DISL:DISL:1,2010-05-06T12:00:00Z,30.2513,-88.0778,24.8,1111122 
DISL,ioos:station:DISL:DISL:1,2010-05-06T12:30:00Z,30.2513,-88.0778,24.86,1111122 
DISL,ioos:station:DISL:DISL:1,2010-05-06T13:00:00Z,30.2513,-88.0778,26.63,1111122 
DISL,ioos:station:DISL:DISL:1,2010-05-06T13:30:00Z,30.2513,-88.0778,25.35,1111122 
DISL,ioos:station:DISL:DISL:1,2010-05-06T14:00:00Z,30.2513,-88.0778,25.27,1111122 
DISL,ioos:station:DISL:DISL:1,2010-05-06T14:30:00Z,30.2513,-88.0778,25.18,1111122 
DISL,ioos:station:DISL:DISL:1,2010-05-06T15:00:00Z,30.2513,-88.0778,25.01,1111122 
DISL,ioos:station:DISL:DISL:1,2010-05-06T15:30:00Z,30.2513,-88.0778,25.27,1111122 
DISL,ioos:station:DISL:DISL:1,2010-05-06T16:00:00Z,30.2513,-88.0778,25.66,1111122 
DISL,ioos:station:DISL:DISL:1,2010-05-06T16:30:00Z,30.2513,-88.0778,25.6,1111122 
DISL,ioos:station:DISL:DISL:1,2010-05-06T17:00:00Z,30.2513,-88.0778,25.05,1111122 
DISL,ioos:station:DISL:DISL:1,2010-05-06T17:30:00Z,30.2513,-88.0778,25.51,1111122 
DISL,ioos:station:DISL:DISL:1,2010-05-06T18:00:00Z,30.2513,-88.0778,25.69,1111122 
DISL,ioos:station:DISL:DISL:1,2010-05-06T18:30:00Z,30.2513,-88.0778,25.75,1111122 
DISL,ioos:station:DISL:DISL:1,2010-05-06T19:00:00Z,30.2513,-88.0778,26.27,1111122 
DISL,ioos:station:DISL:DISL:1,2010-05-06T19:30:00Z,30.2513,-88.0778,25.74,1111122 
DISL,ioos:station:DISL:DISL:1,2010-05-06T20:00:00Z,30.2513,-88.0778,26.19,1111122 
DISL,ioos:station:DISL:DISL:1,2010-05-06T20:30:00Z,30.2513,-88.0778,26.21,1111122 
DISL,ioos:station:DISL:DISL:1,2010-05-06T21:00:00Z,30.2513,-88.0778,26.12,1111122 
DISL,ioos:station:DISL:DISL:1,2010-05-06T21:30:00Z,30.2513,-88.0778,25.9,1111122 
DISL,ioos:station:DISL:DISL:1,2010-05-06T22:00:00Z,30.2513,-88.0778,26.28,1111122 
DISL,ioos:station:DISL:DISL:1,2010-05-06T22:30:00Z,30.2513,-88.0778,25.87,1111122 
DISL,ioos:station:DISL:DISL:1,2010-05-06T23:00:00Z,30.2513,-88.0778,26.11,1111122 
DISL,ioos:station:DISL:DISL:1,2010-05-06T23:30:00Z,30.2513,-88.0778,25.75,1111122 